This is the latest recevied weather packets stored in our database for station/object KF7SOJ. If no packets are shown the sender has not sent any weather packets the latest 10 day(s).
| Time | Temp. | Humidity | Pressure | Rain* | Wind** | Luminosity | Snow |
|---|---|---|---|---|---|---|---|
| 1777921929 | 11.67° C | 42% | 930.8 hPa | 0 mm | - | 267 W/m² | - |
| 1777921624 | 11.67° C | 41% | 930.6 hPa | 0 mm | - | 216 W/m² | - |
| 1777921320 | 11.67° C | 40% | 930.8 hPa | 0 mm | - | 268 W/m² | - |
| 1777921017 | 11.67° C | 41% | 930.7 hPa | 0 mm | - | 308 W/m² | - |
| 1777920713 | 12.22° C | 42% | 930.6 hPa | 0 mm | - | 300 W/m² | - |
| 1777920410 | 12.22° C | 42% | 930.8 hPa | 0 mm | - | 287 W/m² | - |
| 1777920105 | 11.67° C | 42% | 930.8 hPa | 0 mm | - | 237 W/m² | - |
| 1777919802 | 11.67° C | 42% | 930.8 hPa | 0 mm | - | 226 W/m² | - |
| 1777919499 | 12.22° C | 40% | 930.7 hPa | 0 mm | - | 259 W/m² | - |
| 1777919197 | 12.22° C | 39% | 930.8 hPa | 0 mm | - | 299 W/m² | - |
| 1777918894 | 12.22° C | 40% | 930.8 hPa | 0 mm | - | 330 W/m² | - |
| 1777918592 | 11.67° C | 40% | 930.8 hPa | 0 mm | - | 342 W/m² | - |
| 1777918289 | 11.67° C | 41% | 930.8 hPa | 0 mm | - | 366 W/m² | - |
| 1777917988 | 12.22° C | 40% | 930.9 hPa | 0 mm | - | 344 W/m² | - |
| 1777917686 | 11.67° C | 41% | 930.7 hPa | 0 mm | - | 342 W/m² | - |
| 1777917383 | 11.67° C | 43% | 930.9 hPa | 0 mm | - | 334 W/m² | - |
| 1777917080 | 11.67° C | 45% | 930.9 hPa | 0 mm | - | 359 W/m² | - |
| 1777916778 | 11.67° C | 45% | 931.1 hPa | 0 mm | - | 388 W/m² | - |
| 1777916474 | 11.67° C | 43% | 931 hPa | 0 mm | - | 400 W/m² | - |
| 1777916171 | 11.11° C | 47% | 931 hPa | 0 mm | - | 371 W/m² | - |
| 1777915869 | 11.11° C | 47% | 931.1 hPa | 0 mm | - | 347 W/m² | - |
| 1777915565 | 11.67° C | 47% | 931.1 hPa | 0 mm | - | 316 W/m² | - |
| 1777915262 | 11.11° C | 48% | 931 hPa | 0 mm | - | 341 W/m² | - |
| 1777914958 | 11.11° C | 46% | 931.1 hPa | 0 mm | - | 350 W/m² | - |
| 1777914656 | 11.11° C | 49% | 931.4 hPa | 0 mm | - | 388 W/m² | - |
* Rain latest hour (hover to see other rain measurements)
** Current wind speed in m/s (hover to see current wind gust speed)